Tracking 18984 objects as of 24-Feb-2018
HD Live streaming from Space Station
objects crossing your sky now

SJ-7

Track SJ-7 now!
10-day predictions
SJ-7 is classified as:


NORAD ID: 28737
Int'l Code: 2005-024A
Perigee: 564.5 km
Apogee: 610.9 km
Inclination: 97.7 °
Period: 96.3 minutes
Semi major axis: 6958 km
RCS: 3.0015 m2 (large)
Launch date: July 5, 2005
Source: People's Republic of China (PRC)
Launch site: Jiuquan Satellite Launch Center, China (JSC)
aabbcc
Your satellite tracking list
Your tracking list is empty




NASA's NSSDC Master Catalog

Two Line Element Set (TLE):
1 28737U 05024A   18055.23764766  .00000743  00000-0  71475-4 0  9990
2 28737  97.6616  61.4760 0033302 188.4050 171.6634 14.95576529692621
Source of the keplerian elements: AFSPC